Falfurrias, TX

12:08 AM CDT on September 01, 2016 (GMT -0500)
Falfurrias

Weather History for KBKS - November, 2012

Change the Weather History Date:

Saturday, November 24, 2012

  Actual Average (KNQI) Record (KNQI)
Temperature  
Mean Temperature 64 °F -  
Max Temperature 72 °F 71 °F 84 °F (2008)
Min Temperature 56 °F 53 °F 34 °F (2003)
Growing Degree Days 14 (Base 50)    
Moisture  
Dew Point 47 °F    
Average Humidity 56    
Maximum Humidity 91    
Minimum Humidity 35    
Precipitation  
Precipitation 0.00 in - - ()
Sea Level Pressure  
Sea Level Pressure 30.28 in    
Wind  
Wind Speed 7 mph (NNE)    
Max Wind Speed 12 mph    
Max Gust Speed 17 mph    
Visibility 10 miles    
Events      
Averages and records for this station are not official NWS values.
T = Trace of Precipitation, MM = Missing Value Source: NWS Daily Summary

Daily Weather History Graph

Daily Weather History Graph

Search for Another Location

Airport or City:

Trip Planner

Search our weather history database for the weather conditions in past years. The results will help you decide how hot, cold, wet, or windy it might be!

Date:

Astronomy

Nov. 24, 2012 Rise Set
Actual Time 7:00 AM CST 5:38 PM CST
Civil Twilight 6:35 AM CST 6:03 PM CST
Nautical Twilight 6:06 AM CST 6:32 PM CST
Astronomical Twilight 5:38 AM CST 7:00 PM CST
Moon 3:11 PM CST (11/24) 3:33 AM CST (11/24)
Length of Visible Light 11h 28m
Length of Day
10h 38m
Waxing Gibbous, 87% of the Moon is Illuminated
Nov 24
Waxing Gibbous
Nov 28
Full
Dec 6
Last Quarter
Dec 13
New
Dec 19
First Quarter

Hourly Weather History & Observations

Time (CST) Temp. Dew Point Humidity Pressure Visibility Wind Dir Wind Speed Gust Speed Precip Events Conditions
12:15 AM 61.5 °F 59.0 °F 91% 30.30 in 10.0 mi North 9.2 mph 17.3 mph N/A   Mostly Cloudy
12:35 AM 63.5 °F 54.5 °F 72% 30.29 in 10.0 mi North 9.2 mph - N/A   Overcast
12:55 AM 63.7 °F 54.9 °F 73% 30.30 in 10.0 mi NNW 8.1 mph - N/A   Overcast
1:15 AM 63.7 °F 54.7 °F 72% 30.31 in 10.0 mi NNW 6.9 mph - N/A   Overcast
1:35 AM 63.5 °F 54.1 °F 72% 30.30 in 10.0 mi North 6.9 mph - N/A   Overcast
2:15 AM 63.9 °F 53.2 °F 68% 30.29 in 10.0 mi North 8.1 mph - N/A   Overcast
2:35 AM 63.7 °F 52.9 °F 68% 30.29 in 10.0 mi North 8.1 mph - N/A   Scattered Clouds
2:55 AM 63.7 °F 52.7 °F 67% 30.29 in 10.0 mi North 6.9 mph - N/A   Clear
3:15 AM 64.0 °F 52.7 °F 67% 30.29 in 10.0 mi NNW 8.1 mph - N/A   Mostly Cloudy
3:35 AM 64.4 °F 52.5 °F 65% 30.30 in 10.0 mi NNW 8.1 mph - N/A   Overcast
3:55 AM 64.6 °F 52.2 °F 64% 30.30 in 10.0 mi North 6.9 mph - N/A   Overcast
4:15 AM 64.8 °F 52.3 °F 64% 30.30 in 10.0 mi North 6.9 mph - N/A   Overcast
4:35 AM 64.6 °F 52.7 °F 65% 30.31 in 10.0 mi North 6.9 mph - N/A   Overcast
4:55 AM 64.4 °F 54.0 °F 69% 30.31 in 10.0 mi North 8.1 mph - N/A   Overcast
5:15 AM 64.4 °F 54.0 °F 69% 30.31 in 10.0 mi North 10.4 mph - N/A   Overcast
5:35 AM 63.9 °F 52.9 °F 67% 30.31 in 10.0 mi North 11.5 mph - N/A   Overcast
6:15 AM 63.9 °F 49.6 °F 60% 30.31 in 10.0 mi NNE 9.2 mph 17.3 mph N/A   Overcast
6:35 AM 64.0 °F 50.0 °F 60% 30.32 in 10.0 mi North 6.9 mph - N/A   Overcast
6:55 AM 64.0 °F 49.8 °F 60% 30.32 in 10.0 mi North 8.1 mph - N/A   Overcast
7:15 AM 64.2 °F 50.0 °F 60% 30.33 in 10.0 mi North 6.9 mph - N/A   Overcast
7:35 AM 64.0 °F 50.5 °F 61% 30.33 in 10.0 mi North 8.1 mph - N/A   Overcast
7:55 AM 64.4 °F 47.3 °F 54% 30.34 in 10.0 mi North 9.2 mph - N/A   Overcast
8:15 AM 64.0 °F 46.8 °F 53% 30.35 in 10.0 mi North 10.4 mph - N/A   Overcast
8:35 AM 63.7 °F 44.4 °F 50% 30.35 in 10.0 mi North 9.2 mph - N/A   Overcast
8:55 AM 63.9 °F 43.7 °F 48% 30.36 in 10.0 mi North 8.1 mph - N/A   Overcast
9:15 AM 64.4 °F 42.3 °F 44% 30.36 in 10.0 mi NNE 8.1 mph - N/A   Overcast
9:35 AM 64.2 °F 40.5 °F 42% 30.37 in 10.0 mi North 10.4 mph 16.1 mph N/A   Overcast
9:55 AM 64.6 °F 39.9 °F 40% 30.37 in 10.0 mi North 10.4 mph - N/A   Overcast
10:15 AM 64.4 °F 39.4 °F 40% 30.37 in 10.0 mi North 8.1 mph - N/A   Overcast
10:35 AM 64.8 °F 37.9 °F 37% 30.37 in 10.0 mi North 11.5 mph - N/A   Overcast
10:55 AM 65.5 °F 38.3 °F 37% 30.37 in 10.0 mi North 9.2 mph - N/A   Overcast
11:15 AM 65.3 °F 39.9 °F 39% 30.35 in 10.0 mi North 8.1 mph - N/A   Overcast
11:35 AM 66.0 °F 40.6 °F 39% 30.34 in 10.0 mi North 8.1 mph - N/A   Overcast
11:55 AM 65.8 °F 40.1 °F 39% 30.33 in 10.0 mi North 5.8 mph - N/A   Overcast
12:15 PM 66.6 °F 40.8 °F 39% 30.32 in 10.0 mi North 5.8 mph - N/A   Overcast
12:35 PM 66.9 °F 39.6 °F 37% 30.31 in 10.0 mi North 5.8 mph - N/A   Overcast
12:55 PM 67.1 °F 39.7 °F 37% 30.30 in 10.0 mi North 6.9 mph - N/A   Overcast
1:15 PM 67.6 °F 40.1 °F 37% 30.29 in 10.0 mi NW 4.6 mph - N/A   Overcast
1:35 PM 68.4 °F 39.9 °F 35% 30.27 in 10.0 mi North 5.8 mph - N/A   Overcast
1:55 PM 68.2 °F 39.6 °F 35% 30.26 in 10.0 mi North 4.6 mph - N/A   Overcast
2:15 PM 69.1 °F 40.5 °F 35% 30.25 in 10.0 mi NNE 3.5 mph - N/A   Mostly Cloudy
2:35 PM 70.5 °F 43.2 °F 37% 30.24 in 10.0 mi ENE 4.6 mph - N/A   Clear
2:55 PM 70.7 °F 42.6 °F 36% 30.23 in 10.0 mi Calm Calm - N/A   Clear
3:15 PM 71.1 °F 42.4 °F 36% 30.22 in 10.0 mi Calm Calm - N/A   Clear
3:35 PM 71.8 °F 42.8 °F 35% 30.21 in 10.0 mi ENE 4.6 mph - N/A   Clear
3:55 PM 72.0 °F 42.6 °F 35% 30.21 in 10.0 mi NE 4.6 mph - N/A   Clear
4:15 PM 72.0 °F 42.8 °F 35% 30.20 in 10.0 mi ENE 5.8 mph - N/A   Clear
4:35 PM 71.6 °F 43.5 °F 36% 30.21 in 10.0 mi ESE 3.5 mph - N/A   Clear
5:15 PM 70.3 °F 44.1 °F 39% 30.20 in 10.0 mi ENE 3.5 mph - N/A   Clear
5:35 PM 69.3 °F 45.0 °F 42% 30.20 in 10.0 mi East 3.5 mph - N/A   Clear
5:55 PM 68.0 °F 45.7 °F 45% 30.20 in 10.0 mi East 3.5 mph - N/A   Clear
6:15 PM 66.9 °F 46.4 °F 48% 30.20 in 10.0 mi East 3.5 mph - N/A   Clear
6:35 PM 66.2 °F 46.8 °F 50% 30.20 in 10.0 mi East 3.5 mph - N/A   Clear
6:55 PM 64.4 °F 50.9 °F 62% 30.20 in 10.0 mi Calm Calm - N/A   Clear
7:15 PM 63.5 °F 49.3 °F 60% 30.21 in 10.0 mi SW 3.5 mph - N/A   Clear
7:35 PM 61.5 °F 52.3 °F 72% 30.21 in 10.0 mi ESE 5.8 mph - N/A   Clear
7:55 PM 61.7 °F 50.9 °F 68% 30.22 in 10.0 mi SSE 3.5 mph - N/A   Clear
8:15 PM 61.2 °F 51.3 °F 70% 30.22 in 10.0 mi SSE 4.6 mph - N/A   Clear
8:35 PM 60.3 °F 51.8 °F 74% 30.22 in 10.0 mi SSE 4.6 mph - N/A   Clear
8:55 PM 59.5 °F 52.5 °F 78% 30.22 in 10.0 mi SSE 3.5 mph - N/A   Clear
9:15 PM 59.9 °F 51.8 °F 75% 30.22 in 10.0 mi Calm Calm - N/A   Clear
9:35 PM 59.7 °F 52.5 °F 77% 30.22 in 10.0 mi Calm Calm - N/A   Clear
10:15 PM 58.3 °F 52.0 °F 80% 30.21 in 10.0 mi Calm Calm - N/A   Clear
10:35 PM 58.1 °F 52.3 °F 81% 30.21 in 10.0 mi Calm Calm - N/A   Clear
11:15 PM 57.2 °F 51.4 °F 81% 30.19 in 10.0 mi Calm Calm - N/A   Clear
11:35 PM 56.3 °F 51.6 °F 84% 30.19 in 10.0 mi WSW 3.5 mph - N/A   Clear